Simultaneous Nadir Overpasses (SNOs) Predictions

Prediction of SNOs between AQUA and NOAA-19 Satellite Orbit:

Table of predicted SNOs for the next 14.0 days since TLE Epoch: 1/14/2023
Index Date (AQUA) Time (AQUA) Lat,Lon (AQUA) SZA (AQUA ) Date (NOAA-19) Time (NOAA-19) Lat,Lon (NOAA-19) SZA (NOAA-19 ) Distance(km) Time Diff (sec)
1 01/15/2023 11:15:14 -76.52,-179.95 82.09 01/15/2023 11:14:08 -76.43, 177.04 81.99 78.83 66
2 01/15/2023 12:04:48 76.89, -13.63 98.34 01/15/2023 12:04:53 76.90, -13.72 98.36 2.55 5
3 01/17/2023 16:47:54 76.45, -82.85 97.41 01/17/2023 16:46:49 76.38, -86.25 97.56 89.02 65
4 01/17/2023 17:37:29 -76.92, 83.12 82.05 01/17/2023 17:37:40 -76.89, 83.10 82.08 3.49 11
5 01/19/2023 22:20:40 -76.76, 12.92 82.68 01/19/2023 22:19:28 -76.68, 11.85 82.68 28.63 72
6 01/19/2023 23:10:09 76.89,-179.94 97.48 01/19/2023 23:10:20 76.89,-179.97 97.48 0.79 11
7 01/22/2023 03:53:20 76.78, 109.71 96.86 01/22/2023 03:52:08 76.70, 108.84 96.86 23.62 72
8 01/22/2023 04:42:48 -76.91, -83.15 82.99 01/22/2023 04:43:05 -76.91, -83.03 83.00 3.22 17
9 01/24/2023 09:25:59 -76.84,-153.66 83.58 01/24/2023 09:24:49 -76.85,-153.62 83.55 1.85 70
10 01/24/2023 10:15:26 76.89, 13.81 96.47 01/24/2023 10:15:46 76.90, 13.84 96.48 1.78 20
11 01/26/2023 14:58:37 76.85, -56.86 95.90 01/26/2023 14:57:31 76.82, -56.87 95.88 4.03 66



Historial Predications of SNOs between AQUA and NOAA-19
